QPF
0.01 0.01 0.02 0.02 0.02 0.03 0.03 0.03 0.03 0.03 0.04 0.03 0.04 0.03 0.03 0.03 0.03 0.02 0.03 0.03 0.03 0.05 0.08 0.07 0.04 0.04 0.04 0.03 0.03 0.04 0.05 0.05 0.04 0.04 0.04 0.03 0.04 0.05 0.05 0.05 0.05 0.05 0.03
0.01 0.01 0.01 0.02 0.03 0.03 0.02 0.02 0.03 0.03 0.04 0.04 0.04 0.04 0.04 0.03 0.02 0.02 0.03 0.03 0.03 0.04 0.06 0.07 0.05 0.04 0.03 0.02 0.02 0.03 0.04 0.03 0.03 0.04 0.04 0.05 0.06 0.04 0.03 0.04 0.04 0.05 0.05
0.00 0.00 0.01 0.01 0.03 0.03 0.02 0.02 0.02 0.02 0.04 0.03 0.03 0.03 0.04 0.03 0.02 0.02 0.03 0.03 0.03 0.04 0.04 0.04 0.03 0.03 0.03 0.03 0.03 0.03 0.03 0.02 0.03 0.04 0.04 0.05 0.06 0.05 0.04 0.04 0.03 0.03 0.04
0.00 0.00 0.01 0.01 0.01 0.02 0.02 0.03 0.02 0.01 0.02 0.02 0.02 0.02 0.02 0.03 0.02 0.02 0.02 0.04 0.04 0.04 0.04 0.03 0.03 0.03 0.04 0.05 0.05 0.04 0.03 0.03 0.03 0.03 0.03 0.05 0.07 0.06 0.05 0.05 0.04 0.04 0.04
0.00 0.01 0.01 0.01 0.01 0.01 0.01 0.03 0.03 0.02 0.02 0.01 0.02 0.02 0.02 0.01 0.02 0.03 0.03 0.04 0.04 0.04 0.03 0.03 0.03 0.03 0.04 0.05 0.05 0.04 0.03 0.03 0.03 0.04 0.04 0.04 0.06 0.08 0.08 0.07 0.06 0.04 0.04
0.00 0.00 0.00 0.00 0.00 0.01 0.01 0.02 0.05 0.05 0.03 0.02 0.02 0.02 0.02 0.02 0.02 0.03 0.04 0.04 0.04 0.04 0.03 0.03 0.04 0.04 0.04 0.04 0.05 0.05 0.04 0.03 0.04 0.04 0.03 0.05 0.07 0.09 0.12 0.09 0.05 0.05 0.03
0.00 0.00 0.00 0.00 0.00 0.00 0.00 0.01 0.02 0.05 0.05 0.02 0.02 0.02 0.02 0.03 0.03 0.03 0.03 0.03 0.04 0.03 0.02 0.02 0.02 0.03 0.04 0.04 0.05 0.05 0.05 0.04 0.04 0.04 0.03 0.03 0.04 0.06 0.10 0.08 0.04 0.03 0.02
0.00 0.00 0.00 0.00 0.00 0.00 0.01 0.01 0.01 0.04 0.04 0.03 0.03 0.03 0.03 0.03 0.03 0.04 0.03 0.02 0.03 0.03 0.02 0.02 0.02 0.02 0.02 0.02 0.03 0.03 0.03 0.04 0.04 0.03 0.03 0.02 0.02 0.02 0.04 0.04 0.03 0.02 0.02
0.00 0.00 0.00 0.00 0.00 0.00 0.00 0.01 0.01 0.03 0.05 0.04 0.03 0.04 0.04 0.04 0.04 0.03 0.03 0.02 0.02 0.02 0.02 0.02 0.02 0.02 0.01 0.02 0.03 0.03 0.04 0.03 0.04 0.03 0.03 0.03 0.02 0.02 0.02 0.03 0.03 0.03 0.02
0.00 0.00 0.00 0.00 0.00 0.00 0.00 0.00 0.00 0.01 0.04 0.04 0.02 0.04 0.03 0.04 0.04 0.03 0.03 0.03 0.02 0.02 0.03 0.03 0.02 0.02 0.02 0.03 0.03 0.03 0.03 0.03 0.02 0.02 0.03 0.03 0.02 0.02 0.01 0.02 0.03 0.04 0.04
0.00 0.00 0.00 0.00 0.00 0.00 0.00 0.00 0.00 0.01 0.02 0.03 0.03 0.05 0.04 0.03 0.04 0.04 0.04 0.03 0.03 0.03 0.03 0.03 0.03 0.03 0.02 0.03 0.03 0.02 0.03 0.03 0.03 0.02 0.02 0.03 0.03 0.02 0.01 0.01 0.03 0.05 0.06
0.00 0.00 0.00 0.00 0.00 0.00 0.00 0.01 0.01 0.01 0.01 0.01 0.02 0.04 0.05 0.04 0.05 0.04 0.03 0.03 0.02 0.02 0.02 0.02 0.03 0.02 0.02 0.02 0.03 0.03 0.03 0.03 0.03 0.04 0.03 0.02 0.03 0.03 0.02 0.02 0.02 0.04 0.06
0.00 0.01 0.00 0.00 0.00 0.00 0.01 0.01 0.01 0.01 0.01 0.01 0.01 0.01 0.02 0.03 0.04 0.04 0.02 0.02 0.02 0.02 0.02 0.02 0.03 0.02 0.02 0.02 0.02 0.02 0.02 0.02 0.03 0.04 0.03 0.02 0.02 0.02 0.03 0.02 0.02 0.02 0.03
0.00 0.00 0.01 0.01 0.01 0.00 0.01 0.01 0.01 0.01 0.01 0.01 0.01 0.01 0.01 0.01 0.02 0.03 0.03 0.03 0.03 0.03 0.03 0.03 0.03 0.02 0.02 0.02 0.02 0.02 0.02 0.01 0.02 0.02 0.02 0.02 0.02 0.02 0.02 0.02 0.02 0.02 0.03
0.01 0.01 0.01 0.01 0.01 0.01 0.01 0.01 0.01 0.01 0.01 0.01 0.01 0.01 0.01 0.02 0.03 0.03 0.02 0.02 0.02 0.02 0.03 0.03 0.02 0.02 0.02 0.02 0.02 0.02 0.02 0.02 0.01 0.02 0.02 0.02 0.01 0.01 0.02 0.02 0.02 0.03 0.04
0.01 0.01 0.01 0.01 0.02 0.02 0.02 0.01 0.01 0.01 0.01 0.00 0.00 0.01 0.01 0.02 0.02 0.02 0.01 0.01 0.01 0.02 0.03 0.03 0.03 0.03 0.02 0.02 0.02 0.02 0.02 0.02 0.01 0.02 0.02 0.02 0.01 0.01 0.01 0.01 0.02 0.04 0.05
0.01 0.01 0.01 0.01 0.01 0.02 0.02 0.02 0.02 0.01 0.01 0.01 0.01 0.01 0.01 0.01 0.01 0.01 0.01 0.01 0.02 0.02 0.03 0.03 0.04 0.04 0.03 0.02 0.02 0.02 0.03 0.03 0.02 0.02 0.03 0.02 0.01 0.01 0.01 0.01 0.01 0.02 0.03
0.01 0.01 0.01 0.01 0.01 0.01 0.02 0.02 0.02 0.02 0.02 0.01 0.01 0.01 0.01 0.01 0.01 0.01 0.01 0.02 0.02 0.02 0.02 0.02 0.03 0.03 0.03 0.03 0.02 0.02 0.02 0.02 0.02 0.01 0.02 0.02 0.01 0.01 0.01 0.01 0.01 0.01 0.01
0.01 0.01 0.01 0.01 0.01 0.01 0.02 0.02 0.03 0.03 0.03 0.02 0.01 0.01 0.01 0.01 0.02 0.02 0.02 0.03 0.03 0.02 0.03 0.03 0.03 0.03 0.03 0.04 0.03 0.03 0.02 0.02 0.02 0.01 0.01 0.01 0.01 0.01 0.01 0.00 0.01 0.01 0.01
0.00 0.00 0.01 0.01 0.01 0.01 0.02 0.02 0.03 0.04 0.03 0.03 0.03 0.02 0.02 0.02 0.02 0.02 0.02 0.02 0.03 0.03 0.03 0.04 0.04 0.05 0.05 0.08 0.07 0.05 0.03 0.03 0.02 0.01 0.01 0.00 0.00 0.01 0.01 0.00 0.01 0.01 0.01
0.01 0.00 0.01 0.01 0.01 0.01 0.01 0.02 0.02 0.03 0.03 0.03 0.03 0.03 0.03 0.03 0.02 0.02 0.02 0.03 0.03 0.03 0.03 0.04 0.05 0.08 0.10 0.10 0.09 0.07 0.04 0.02 0.02 0.01 0.01 0.01 0.00 0.01 0.01 0.01 0.01 0.01 0.01
0.00 0.01 0.01 0.01 0.01 0.01 0.01 0.02 0.03 0.04 0.04 0.04 0.04 0.05 0.04 0.03 0.03 0.02 0.02 0.03 0.03 0.03 0.02 0.02 0.03 0.05 0.05 0.05 0.05 0.04 0.03 0.01 0.01 0.01 0.01 0.01 0.00 0.01 0.01 0.02 0.01 0.01 0.01
0.00 0.01 0.01 0.01 0.01 0.02 0.02 0.03 0.03 0.04 0.05 0.06 0.06 0.06 0.05 0.04 0.02 0.02 0.02 0.02 0.02 0.02 0.02 0.02 0.01 0.02 0.02 0.02 0.02 0.02 0.01 0.01 0.01 0.01 0.01 0.01 0.00 0.01 0.01 0.02 0.01 0.01 0.01
0.01 0.01 0.01 0.01 0.01 0.02 0.02 0.02 0.03 0.03 0.03 0.05 0.06 0.06 0.05 0.04 0.03 0.02 0.02 0.02 0.02 0.02 0.02 0.01 0.01 0.01 0.02 0.01 0.02 0.01 0.01 0.01 0.00 0.01 0.01 0.01 0.01 0.01 0.01 0.01 0.01 0.01 0.01
0.01 0.00 0.01 0.01 0.01 0.02 0.02 0.02 0.03 0.03 0.04 0.04 0.05 0.06 0.07 0.05 0.04 0.03 0.02 0.02 0.02 0.02 0.02 0.02 0.02 0.02 0.02 0.02 0.03 0.02 0.01 0.01 0.00 0.01 0.01 0.01 0.01 0.01 0.02 0.02 0.02 0.02 0.02
0.00 0.01 0.01 0.01 0.02 0.03 0.03 0.04 0.05 0.05 0.05 0.05 0.05 0.04 0.04 0.05 0.05 0.03 0.02 0.02 0.02 0.02 0.02 0.02 0.02 0.03 0.03 0.03 0.03 0.02 0.02 0.01 0.01 0.01 0.01 0.01 0.01 0.02 0.03 0.02 0.02 0.02 0.02
MSLP
1008.85 1009.22 1009.50 1009.68 1009.76 1009.76 1009.70 1009.65 1009.64 1009.70 1009.85 1010.08 1010.38 1010.72 1011.08 1011.41 1011.71 1011.97 1012.21 1012.42 1012.64 1012.87 1013.13 1013.42 1013.74 1014.08 1014.45 1014.82 1015.21 1015.62 1016.04 1016.47 1016.91 1017.36 1017.79 1018.19 1018.56 1018.86 1019.10 1019.27 1019.37 1019.42 1019.43
1008.83 1009.32 1009.72 1010.00 1010.15 1010.18 1010.14 1010.09 1010.07 1010.12 1010.27 1010.51 1010.83 1011.18 1011.53 1011.85 1012.11 1012.33 1012.51 1012.67 1012.84 1013.03 1013.27 1013.55 1013.86 1014.20 1014.54 1014.90 1015.25 1015.60 1015.96 1016.34 1016.75 1017.19 1017.65 1018.13 1018.59 1019.03 1019.42 1019.73 1019.97 1020.12 1020.19
1008.62 1009.22 1009.74 1010.13 1010.38 1010.49 1010.50 1010.48 1010.48 1010.55 1010.71 1010.97 1011.29 1011.64 1011.98 1012.27 1012.50 1012.66 1012.79 1012.89 1013.02 1013.18 1013.40 1013.67 1013.98 1014.31 1014.64 1014.95 1015.24 1015.52 1015.79 1016.09 1016.44 1016.84 1017.31 1017.84 1018.40 1018.98 1019.52 1020.01 1020.40 1020.69 1020.86
1008.25 1008.94 1009.57 1010.07 1010.42 1010.63 1010.72 1010.76 1010.82 1010.93 1011.13 1011.41 1011.75 1012.10 1012.43 1012.69 1012.88 1013.00 1013.08 1013.14 1013.22 1013.36 1013.56 1013.83 1014.14 1014.46 1014.76 1015.03 1015.25 1015.44 1015.61 1015.80 1016.05 1016.40 1016.84 1017.39 1018.03 1018.72 1019.42 1020.07 1020.64 1021.09 1021.39
1007.78 1008.52 1009.23 1009.84 1010.30 1010.60 1010.79 1010.92 1011.05 1011.23 1011.47 1011.80 1012.16 1012.53 1012.86 1013.11 1013.28 1013.36 1013.40 1013.42 1013.47 1013.59 1013.78 1014.05 1014.35 1014.66 1014.94 1015.16 1015.31 1015.40 1015.46 1015.53 1015.68 1015.93 1016.33 1016.87 1017.54 1018.32 1019.13 1019.94 1020.66 1021.26 1021.71
1007.29 1008.06 1008.83 1009.51 1010.06 1010.46 1010.74 1010.96 1011.16 1011.41 1011.72 1012.10 1012.51 1012.90 1013.25 1013.51 1013.66 1013.73 1013.74 1013.74 1013.77 1013.87 1014.05 1014.30 1014.60 1014.89 1015.14 1015.31 1015.40 1015.40 1015.36 1015.33 1015.37 1015.53 1015.85 1016.35 1017.03 1017.84 1018.73 1019.64 1020.49 1021.22 1021.80
1006.87 1007.65 1008.45 1009.18 1009.79 1010.26 1010.62 1010.91 1011.18 1011.50 1011.87 1012.30 1012.76 1013.20 1013.58 1013.86 1014.02 1014.09 1014.10 1014.08 1014.09 1014.17 1014.33 1014.56 1014.84 1015.11 1015.33 1015.47 1015.51 1015.46 1015.34 1015.22 1015.17 1015.24 1015.49 1015.93 1016.57 1017.37 1018.29 1019.24 1020.17 1021.00 1021.68
1006.60 1007.37 1008.18 1008.94 1009.58 1010.09 1010.49 1010.83 1011.15 1011.51 1011.93 1012.41 1012.92 1013.40 1013.83 1014.14 1014.34 1014.43 1014.44 1014.41 1014.41 1014.46 1014.59 1014.80 1015.04 1015.29 1015.49 1015.61 1015.62 1015.53 1015.38 1015.22 1015.11 1015.12 1015.29 1015.67 1016.25 1017.00 1017.89 1018.84 1019.78 1020.66 1021.41
1006.52 1007.28 1008.09 1008.85 1009.49 1010.01 1010.42 1010.77 1011.11 1011.49 1011.94 1012.45 1012.99 1013.53 1014.00 1014.36 1014.60 1014.72 1014.75 1014.73 1014.71 1014.74 1014.83 1014.99 1015.20 1015.42 1015.59 1015.70 1015.71 1015.63 1015.48 1015.31 1015.18 1015.16 1015.29 1015.60 1016.11 1016.79 1017.60 1018.50 1019.41 1020.28 1021.06
1006.59 1007.36 1008.16 1008.91 1009.53 1010.03 1010.42 1010.75 1011.08 1011.46 1011.91 1012.44 1013.01 1013.58 1014.10 1014.52 1014.81 1014.97 1015.03 1015.02 1015.00 1015.00 1015.05 1015.16 1015.32 1015.50 1015.65 1015.76 1015.78 1015.73 1015.62 1015.49 1015.39 1015.37 1015.48 1015.74 1016.18 1016.77 1017.49 1018.30 1019.13 1019.95 1020.71
1006.77 1007.55 1008.34 1009.07 1009.67 1010.13 1010.49 1010.79 1011.09 1011.44 1011.88 1012.41 1012.99 1013.59 1014.15 1014.62 1014.97 1015.19 1015.29 1015.30 1015.28 1015.26 1015.27 1015.34 1015.44 1015.58 1015.71 1015.81 1015.86 1015.85 1015.80 1015.74 1015.69 1015.71 1015.83 1016.07 1016.45 1016.96 1017.58 1018.28 1019.01 1019.74 1020.44
1006.93 1007.73 1008.53 1009.24 1009.81 1010.24 1010.57 1010.83 1011.10 1011.43 1011.85 1012.36 1012.95 1013.57 1014.17 1014.70 1015.10 1015.38 1015.53 1015.59 1015.58 1015.55 1015.53 1015.55 1015.61 1015.70 1015.80 1015.90 1015.97 1016.01 1016.03 1016.04 1016.07 1016.15 1016.30 1016.54 1016.89 1017.33 1017.85 1018.44 1019.06 1019.69 1020.31
1006.98 1007.81 1008.60 1009.30 1009.86 1010.28 1010.59 1010.84 1011.09 1011.40 1011.81 1012.32 1012.91 1013.54 1014.17 1014.74 1015.21 1015.55 1015.77 1015.87 1015.90 1015.88 1015.85 1015.84 1015.85 1015.90 1015.97 1016.05 1016.13 1016.21 1016.29 1016.37 1016.48 1016.63 1016.82 1017.09 1017.41 1017.81 1018.26 1018.75 1019.27 1019.80 1020.34
1006.84 1007.68 1008.48 1009.19 1009.75 1010.18 1010.51 1010.77 1011.03 1011.35 1011.76 1012.27 1012.86 1013.51 1014.17 1014.78 1015.30 1015.70 1015.98 1016.15 1016.23 1016.24 1016.22 1016.19 1016.17 1016.18 1016.21 1016.27 1016.35 1016.45 1016.57 1016.71 1016.89 1017.09 1017.34 1017.64 1017.97 1018.34 1018.74 1019.16 1019.60 1020.05 1020.50
1006.49 1007.33 1008.13 1008.84 1009.44 1009.91 1010.28 1010.60 1010.91 1011.27 1011.70 1012.22 1012.82 1013.48 1014.15 1014.79 1015.35 1015.82 1016.17 1016.41 1016.54 1016.60 1016.61 1016.58 1016.55 1016.53 1016.54 1016.56 1016.63 1016.72 1016.86 1017.04 1017.25 1017.51 1017.81 1018.14 1018.49 1018.86 1019.23 1019.62 1020.00 1020.38 1020.76
1005.95 1006.76 1007.55 1008.28 1008.92 1009.47 1009.93 1010.33 1010.73 1011.15 1011.63 1012.18 1012.79 1013.45 1014.12 1014.78 1015.37 1015.88 1016.29 1016.60 1016.81 1016.93 1016.98 1016.98 1016.96 1016.93 1016.90 1016.90 1016.93 1017.01 1017.14 1017.33 1017.58 1017.87 1018.20 1018.57 1018.95 1019.33 1019.70 1020.06 1020.41 1020.75 1021.08
1005.29 1006.04 1006.81 1007.57 1008.27 1008.90 1009.47 1009.99 1010.50 1011.01 1011.56 1012.14 1012.77 1013.42 1014.09 1014.73 1015.34 1015.88 1016.35 1016.72 1016.99 1017.19 1017.30 1017.34 1017.34 1017.31 1017.28 1017.25 1017.26 1017.31 1017.43 1017.61 1017.86 1018.17 1018.53 1018.92 1019.32 1019.73 1020.11 1020.47 1020.80 1021.11 1021.40
1004.60 1005.27 1006.01 1006.78 1007.54 1008.27 1008.96 1009.62 1010.25 1010.87 1011.48 1012.11 1012.75 1013.39 1014.03 1014.66 1015.26 1015.82 1016.31 1016.73 1017.08 1017.34 1017.53 1017.63 1017.67 1017.67 1017.63 1017.60 1017.59 1017.62 1017.72 1017.89 1018.13 1018.45 1018.82 1019.23 1019.65 1020.07 1020.47 1020.83 1021.15 1021.44 1021.70
1003.96 1004.54 1005.24 1006.00 1006.81 1007.64 1008.45 1009.23 1009.99 1010.71 1011.40 1012.07 1012.72 1013.35 1013.96 1014.57 1015.15 1015.70 1016.21 1016.67 1017.08 1017.41 1017.67 1017.84 1017.94 1017.98 1017.98 1017.95 1017.94 1017.96 1018.04 1018.20 1018.44 1018.75 1019.12 1019.54 1019.97 1020.40 1020.80 1021.15 1021.46 1021.73 1021.96
1003.44 1003.92 1004.55 1005.31 1006.15 1007.04 1007.95 1008.85 1009.72 1010.54 1011.30 1012.01 1012.67 1013.29 1013.88 1014.45 1015.01 1015.55 1016.07 1016.57 1017.02 1017.42 1017.75 1018.00 1018.17 1018.27 1018.31 1018.32 1018.32 1018.35 1018.43 1018.58 1018.80 1019.11 1019.48 1019.89 1020.32 1020.74 1021.13 1021.47 1021.76 1022.00 1022.19
1003.06 1003.43 1003.99 1004.72 1005.57 1006.50 1007.49 1008.47 1009.43 1010.33 1011.15 1011.90 1012.58 1013.20 1013.78 1014.33 1014.86 1015.40 1015.93 1016.46 1016.96 1017.42 1017.82 1018.14 1018.39 1018.56 1018.66 1018.71 1018.75 1018.79 1018.88 1019.03 1019.25 1019.54 1019.90 1020.29 1020.71 1021.11 1021.48 1021.79 1022.05 1022.25 1022.41
1002.82 1003.09 1003.57 1004.24 1005.07 1006.02 1007.04 1008.08 1009.10 1010.06 1010.94 1011.74 1012.44 1013.08 1013.66 1014.20 1014.74 1015.28 1015.83 1016.38 1016.92 1017.44 1017.90 1018.30 1018.62 1018.86 1019.02 1019.13 1019.21 1019.28 1019.39 1019.54 1019.75 1020.03 1020.37 1020.74 1021.12 1021.50 1021.83 1022.11 1022.33 1022.49 1022.61
1002.71 1002.88 1003.27 1003.87 1004.65 1005.58 1006.60 1007.66 1008.72 1009.73 1010.66 1011.50 1012.25 1012.92 1013.52 1014.09 1014.65 1015.20 1015.78 1016.36 1016.94 1017.51 1018.03 1018.49 1018.87 1019.17 1019.40 1019.56 1019.67 1019.78 1019.90 1020.06 1020.26 1020.53 1020.84 1021.18 1021.53 1021.86 1022.16 1022.40 1022.59 1022.71 1022.79
1002.72 1002.80 1003.09 1003.60 1004.32 1005.19 1006.18 1007.24 1008.31 1009.35 1010.32 1011.21 1012.01 1012.73 1013.38 1013.99 1014.58 1015.17 1015.77 1016.39 1017.01 1017.61 1018.18 1018.69 1019.12 1019.47 1019.74 1019.95 1020.10 1020.22 1020.35 1020.51 1020.70 1020.94 1021.22 1021.53 1021.85 1022.15 1022.41 1022.62 1022.78 1022.88 1022.93
1002.87 1002.84 1003.03 1003.45 1004.07 1004.87 1005.80 1006.82 1007.88 1008.94 1009.94 1010.88 1011.73 1012.51 1013.22 1013.88 1014.52 1015.16 1015.80 1016.44 1017.09 1017.72 1018.32 1018.86 1019.33 1019.71 1020.01 1020.24 1020.41 1020.55 1020.68 1020.82 1021.00 1021.21 1021.46 1021.73 1022.02 1022.29 1022.53 1022.73 1022.87 1022.96 1023.01
1003.15 1003.03 1003.12 1003.42 1003.93 1004.64 1005.49 1006.46 1007.49 1008.54 1009.57 1010.54 1011.44 1012.27 1013.04 1013.76 1014.45 1015.12 1015.80 1016.47 1017.13 1017.78 1018.39 1018.94 1019.42 1019.82 1020.14 1020.38 1020.56 1020.70 1020.81 1020.94 1021.09 1021.27 1021.49 1021.73 1021.99 1022.25 1022.48 1022.68 1022.84 1022.94 1023.01
Thickness
5816 5814 5812 5810 5806 5803 5799 5797 5795 5793 5792 5790 5788 5786 5785 5784 5783 5782 5779 5778 5777 5776 5774 5774 5771 5771 5769 5767 5767 5765 5763 5762 5762 5760 5759 5762 5764 5763 5762 5762 5762 5762 5761
5814 5812 5811 5809 5806 5802 5799 5797 5794 5793 5791 5790 5787 5785 5784 5783 5782 5780 5777 5776 5774 5773 5773 5770 5770 5768 5766 5764 5762 5761 5760 5761 5761 5758 5755 5753 5754 5757 5762 5760 5759 5759 5759
5815 5812 5810 5808 5806 5802 5800 5798 5794 5792 5790 5789 5788 5785 5782 5780 5779 5777 5775 5774 5773 5772 5770 5768 5767 5765 5765 5762 5760 5759 5757 5756 5758 5759 5756 5751 5747 5751 5756 5756 5756 5755 5755
5820 5817 5813 5808 5806 5804 5802 5797 5793 5791 5789 5787 5786 5782 5778 5775 5774 5774 5773 5772 5770 5769 5768 5766 5765 5763 5763 5760 5760 5759 5758 5755 5755 5756 5756 5755 5753 5749 5746 5750 5753 5752 5751
5823 5818 5815 5810 5808 5805 5802 5797 5793 5789 5787 5785 5783 5779 5778 5775 5774 5772 5769 5768 5768 5766 5765 5763 5762 5760 5760 5758 5756 5755 5755 5755 5754 5753 5753 5752 5751 5751 5746 5742 5744 5747 5748
5824 5820 5817 5812 5808 5805 5801 5797 5791 5787 5785 5782 5780 5777 5774 5771 5769 5766 5765 5765 5765 5764 5762 5760 5759 5758 5757 5755 5754 5753 5753 5752 5751 5751 5752 5750 5748 5747 5745 5741 5739 5740 5743
5824 5819 5814 5810 5806 5803 5799 5795 5789 5784 5782 5780 5777 5775 5772 5769 5765 5764 5762 5761 5761 5760 5757 5757 5755 5754 5753 5752 5751 5750 5750 5750 5748 5747 5748 5749 5748 5748 5746 5742 5740 5737 5739
5824 5819 5814 5810 5806 5802 5797 5793 5787 5783 5780 5777 5774 5772 5769 5768 5765 5761 5760 5759 5757 5756 5754 5752 5751 5750 5749 5749 5748 5749 5747 5746 5745 5745 5744 5745 5746 5746 5745 5742 5739 5735 5735
5822 5819 5815 5811 5806 5801 5796 5791 5785 5781 5778 5775 5771 5768 5765 5763 5760 5758 5757 5756 5753 5753 5750 5748 5747 5745 5744 5743 5743 5743 5742 5742 5742 5743 5741 5741 5742 5742 5742 5741 5739 5733 5729
5820 5817 5814 5810 5806 5801 5796 5791 5785 5779 5776 5772 5769 5766 5762 5759 5757 5755 5752 5751 5749 5748 5746 5744 5743 5741 5740 5739 5738 5739 5738 5737 5737 5737 5735 5734 5738 5737 5736 5736 5735 5734 5730
5818 5815 5812 5809 5804 5800 5795 5788 5782 5777 5772 5769 5765 5762 5759 5756 5754 5751 5749 5746 5744 5743 5741 5739 5738 5736 5735 5735 5733 5734 5733 5732 5732 5731 5731 5729 5729 5730 5731 5731 5729 5728 5726
5815 5813 5810 5805 5800 5795 5790 5785 5780 5775 5770 5766 5762 5758 5755 5752 5749 5747 5744 5742 5740 5738 5736 5735 5733 5731 5730 5729 5728 5727 5727 5726 5725 5724 5723 5722 5723 5721 5722 5722 5721 5720 5719
5809 5807 5804 5799 5794 5790 5785 5781 5776 5772 5769 5764 5759 5754 5751 5748 5745 5742 5740 5738 5736 5734 5732 5729 5728 5726 5725 5723 5722 5721 5720 5719 5719 5718 5716 5716 5715 5713 5714 5713 5714 5714 5714
5803 5800 5796 5792 5788 5783 5779 5775 5771 5769 5765 5760 5755 5751 5747 5744 5741 5739 5736 5733 5731 5729 5727 5724 5723 5721 5719 5718 5716 5715 5713 5712 5712 5711 5710 5709 5708 5707 5706 5706 5705 5706 5706
5796 5794 5790 5787 5782 5778 5773 5770 5766 5763 5760 5755 5752 5748 5744 5741 5737 5734 5731 5729 5727 5725 5722 5720 5718 5716 5715 5713 5710 5708 5707 5705 5704 5703 5703 5702 5700 5698 5697 5699 5699 5698 5698
5789 5788 5785 5781 5776 5773 5769 5764 5761 5758 5754 5750 5747 5744 5740 5737 5733 5730 5727 5724 5721 5719 5716 5714 5712 5710 5709 5704 5701 5700 5700 5699 5697 5696 5696 5696 5693 5691 5689 5688 5687 5688 5689
5784 5781 5779 5776 5773 5769 5764 5759 5756 5753 5748 5744 5741 5739 5735 5731 5728 5726 5722 5718 5715 5713 5710 5707 5705 5702 5699 5695 5693 5692 5693 5692 5691 5689 5688 5689 5689 5685 5683 5682 5680 5680 5679
5779 5777 5775 5772 5770 5765 5761 5756 5753 5747 5743 5738 5735 5732 5729 5726 5723 5719 5716 5713 5710 5707 5703 5700 5698 5695 5692 5687 5685 5684 5685 5685 5683 5682 5681 5680 5678 5677 5674 5674 5675 5675 5675
5774 5772 5772 5770 5765 5759 5755 5749 5745 5741 5735 5731 5728 5726 5723 5719 5715 5712 5709 5706 5703 5700 5696 5693 5690 5687 5684 5679 5677 5676 5679 5678 5677 5676 5674 5672 5670 5665 5663 5665 5665 5666 5667
5768 5766 5765 5763 5757 5753 5749 5742 5737 5732 5728 5725 5722 5719 5715 5711 5707 5704 5701 5698 5695 5692 5689 5686 5683 5680 5677 5672 5670 5668 5673 5671 5670 5669 5668 5663 5660 5656 5654 5656 5657 5656 5658
5758 5758 5755 5752 5747 5744 5739 5733 5728 5724 5721 5718 5713 5709 5707 5703 5699 5695 5692 5689 5687 5684 5681 5678 5676 5673 5669 5665 5661 5659 5662 5662 5662 5662 5661 5659 5651 5648 5646 5646 5648 5647 5647
5747 5746 5743 5740 5737 5734 5729 5724 5719 5716 5713 5708 5704 5701 5698 5696 5693 5687 5683 5680 5678 5675 5672 5670 5669 5667 5663 5658 5654 5651 5649 5650 5651 5652 5653 5650 5643 5640 5638 5638 5638 5638 5638
5735 5734 5731 5728 5726 5724 5720 5714 5710 5707 5704 5699 5695 5692 5689 5687 5684 5679 5676 5673 5670 5669 5667 5664 5662 5660 5658 5654 5648 5645 5643 5641 5642 5643 5641 5638 5635 5633 5634 5632 5631 5631 5634
5724 5722 5720 5717 5714 5712 5709 5705 5701 5698 5694 5690 5686 5683 5680 5678 5675 5673 5671 5668 5665 5661 5659 5656 5654 5652 5650 5647 5644 5641 5639 5635 5635 5635 5633 5629 5628 5628 5628 5627 5628 5628 5630
5713 5711 5709 5707 5704 5701 5698 5695 5692 5688 5684 5681 5678 5676 5674 5670 5666 5664 5661 5659 5655 5652 5648 5647 5645 5641 5640 5634 5628 5628 5629 5627 5626 5624 5625 5626 5625 5624 5624 5624 5624 5623 5623
5701 5699 5698 5696 5692 5690 5687 5685 5682 5679 5676 5673 5670 5669 5667 5663 5661 5657 5653 5648 5646 5641 5637 5634 5631 5631 5626 5623 5620 5617 5615 5614 5612 5613 5616 5616 5616 5615 5616 5616 5616 5616 5615